This demonstration page uses our WeatherBlox Daily Observations layout. Learn more.

Left ArrowRight Arrow

38.20091, -84.87328

Hourly Observations for January 13, 2016

Temp ( °F °C ) Dew Point ( °F °C ) Humidity (%) Winds ( mph kmh ) Pressure ( in mb ) Visibility ( mi km ) Precip ( " mm )
12:53 am 00:53 Clear 14 -10 4 -15.6 64 64 WNW 3 6 30.25 1024 10 16 0.00 0.00
1:53 am 01:53 Clear 13 -10.6 5 -15 70 70 WNW 5 7 30.26 1025 10 16 0.00 0.00
2:53 am 02:53 Clear 13 -10.6 4 -15.6 67 67 W 5 7 30.27 1025 10 16 0.00 0.00
3:53 am 03:53 Clear 11 -11.7 5 -15 77 77 N 3 6 30.28 1026 10 16 0.00 0.00
4:53 am 04:53 Clear 11 -11.7 4 -15.6 73 73 Calm 30.28 1026 10 16 0.00 0.00
5:53 am 05:53 Clear 9 -12.8 4 -15.6 80 80 Calm 30.29 1026 10 16 0.00 0.00
6:53 am 06:53 Clear 10 -12.2 5 -15 80 80 Calm 30.30 1026 10 16 0.00 0.00
7:53 am 07:53 Clear 9 -12.8 4 -15.6 80 80 Calm 30.29 1026 10 16 0.00 0.00
8:53 am 08:53 Sunny 12 -11.1 7 -13.9 80 80 SSW 6 9 30.29 1026 10 16 0.00 0.00
9:53 am 09:53 Sunny 16 -8.9 9 -12.8 74 74 SW 8 13 30.28 1026 10 16 0.00 0.00
10:53 am 10:53 Sunny 18 -7.8 5 -15 57 57 SSW 8 13 30.29 1026 10 16 0.00 0.00
11:53 am 11:53 Sunny 21 -6.1 6 -14.4 52 52 SW 7 11 30.27 1025 10 16 0.00 0.00
12:53 pm 12:53 Cloudy 23 -5 7 -13.9 50 50 WSW 8 13 30.22 1023 10 16 0.00 0.00
1:53 pm 13:53 Cloudy 27 -2.8 7 -13.9 43 43 VRB 6 9 30.20 1023 10 16 0.00 0.00
2:53 pm 14:53 Cloudy 28 -2.2 8 -13.3 43 43 SSW 12 19 30.15 1021 10 16 0.00 0.00
3:53 pm 15:53 Cloudy 30 -1.1 8 -13.3 39 39 SSW 12 19 30.13 1020 10 16 0.00 0.00
4:53 pm 16:53 Cloudy 30 -1.1 9 -12.8 41 41 S 10 17 30.11 1020 10 16 0.00 0.00
5:53 pm 17:53 Cloudy 29 -1.7 11 -11.7 47 47 S 10 17 30.09 1019 10 16 0.00 0.00
6:53 pm 18:53 Mostly Clear 29 -1.7 10 -12.2 45 45 S 12 19 30.04 1017 10 16 0.00 0.00
7:53 pm 19:53 Clear 28 -2.2 10 -12.2 47 47 SSW 9 15 30.04 1017 10 16 0.00 0.00
8:53 pm 20:53 Clear 29 -1.7 11 -11.7 47 47 SSW 10 17 30.02 1017 10 16 0.00 0.00
9:53 pm 21:53 Mostly Cloudy 28 -2.2 13 -10.6 53 53 SW 9 15 30.01 1016 10 16 0.00 0.00
10:53 pm 22:53 Clear 27 -2.8 13 -10.6 55 55 SSW 9 15 30.02 1017 10 16 0.00 0.00
11:53 pm 23:53 Clear 28 -2.2 14 -10 56 56 SW 9 15 30.00 1016 10 16 0.00 0.00

Powered by AerisWeather